Location: Blackrock Ranger Station
(36.0936°N, 118.2611°W)
Time: 03:18:34
(UTC-08:00)

POLYITAN 1 - Visible Passes

Search period start: 07 February 2026 00:00
Search period end: 17 February 2026 00:00
Orbit: 477 x 485 km, 98.1° (Epoch: 7 February)

Date Brightness Start Highest point End Pass type
(mag) Time Alt. Az. Time Alt. Az. Time Alt. Az.
7 Feb ? 06:11:32 10° NNE 06:14:55 40° E 06:18:15 10° S visible
7 Feb ? 18:17:21 10° SSW 18:20:35 32° W 18:23:50 10° NNW visible
8 Feb ? 05:46:50 10° NE 05:49:21 18° E 05:51:50 10° SE visible
8 Feb ? 17:51:30 10° S 17:55:04 79° WSW 17:58:38 10° NNW visible
10 Feb ? 18:34:37 10° SW 18:37:18 20° W 18:40:02 10° NW visible
11 Feb ? 06:02:54 10° NE 06:06:01 28° E 06:09:07 10° SSE visible
11 Feb ? 18:08:10 10° S 18:11:37 46° W 18:15:04 10° NNW visible
12 Feb ? 05:38:31 10° ENE 05:40:14 13° E 05:41:57 10° ESE visible
13 Feb ? 18:51:58 10° WSW 18:53:40 13° W 18:55:21 10° WNW visible
14 Feb ? 18:24:39 10° SSW 18:27:46 28° W 18:30:53 10° NW visible
15 Feb ? 05:53:40 10° NE 05:56:23 20° E 05:59:04 10° SE visible
15 Feb ? 17:58:23 10° S 18:01:55 69° WSW 18:05:28 10° NNW visible
